Back to catalog

FENGYUN 1C DEB

AliveSSO
NORAD 29849·DEBRIS·🇨🇳 China

Launched May 10, 1999 from Taiyuan Satellite Launch Center

Loading…

Next Passes (next 24 hours)

TLE

FreshSource: Space-Track

Epoch: Sep 14, 2026, 11:14 UTC

1 29849U 99025ET  26257.46844015  .00001196  00000-0  73919-3 0  9990
2 29849  99.0022 344.9580 0079261 356.0272  62.3829 14.05740159  2434

Track FENGYUN 1C DEB in real time with AllMySat

Download on the App Store